Location: *
(46.7945°S, 173.0319°W)
Time: 22:47:19
(UTC+00:00)

Daily predictions for brighter satellites

Satellite Brightness Start Highest point End
(mag) Time Altitude Azimuth Time Altitude Azimuth Time Altitude Azimuth
Cosmos 1812 Rocket 4.0 12:04:18 39° NE 12:05:34 53° E 12:10:00 10° SSE
IRAS Rocket 4.4 12:05:31 10° SSE 12:11:06 66° ENE 12:13:24 35° N
Cosmos 2369 Rocket 4.1 12:08:32 10° W 12:13:07 24° SW 12:17:45 10° S
Cosmos 1125 Rocket 3.7 12:09:07 10° SSW 12:14:23 56° WNW 12:16:05 39° NNW
DNEPR-1 R/B 4.2 12:12:09 10° SSW 12:16:50 67° SE 12:22:28 10° NE
Terra 4.3 12:14:46 10° SSW 12:17:00 13° SW 12:19:12 10° W
Timation 2 Rocket 4.4 12:15:59 10° SW 12:22:18 47° WNW 12:24:42 33° NNW
AQUA 3.9 12:21:22 32° NNE 12:23:36 76° ESE 12:28:27 10° S
Cosmos 972 Rocket 4.1 12:19:30 10° SSW 12:24:34 67° ESE 12:27:27 24° NE
CBERS-1 4.1 12:27:31 28° NNE 12:30:20 77° ESE 12:35:32 10° SSW
Cosmos-2242 4.0 12:31:06 26° NE 12:33:01 40° E 12:37:11 10° SSE
Cosmos 1076 Rocket 3.5 12:29:40 10° S 12:34:09 83° W 12:35:40 41° N
Cosmos 2058 3.0 12:30:38 10° S 12:34:58 81° E 12:36:33 38° NNE
Cosmos 2297 Rocket 2.6 12:30:48 10° SSW 12:36:31 63° ESE 12:42:07 10° NE
NOSS 3-1 (C) 4.1 12:31:30 26° NNW 12:36:50 85° NE 12:44:29 10° SE
In-Cosmos 22 Rocket 4.2 12:33:14 10° S 12:38:39 78° ESE 12:41:48 26° NNE
Cosmos 2227 Rocket 2.6 12:34:31 10° SSW 12:40:13 62° ESE 12:45:52 10° NE
Cosmos 783 Rocket 4.5 12:38:59 35° NNW 12:41:14 83° ENE 12:46:32 10° SSE
USA 229 DEB 3.9 12:36:35 26° NW 12:41:15 88° SW 12:48:35 10° SE
Lacrosse 4 Rocket 1.6 12:39:48 41° NNW 12:41:19 74° ENE 12:45:51 10° SE
USA 229 3.9 12:36:41 26° NW 12:41:20 89° SW 12:48:41 10° SE
ALOS 2 3.6 12:40:18 10° S 12:44:27 38° WSW 12:46:11 27° WNW
NPP 3.9 12:43:23 33° NNW 12:45:42 56° W 12:51:06 10° SSW
Resurs 1-4 Rocket 2.5 12:46:19 32° NNW 12:48:23 49° W 12:53:34 10° SSW
NOSS 3-1 (A) 4.2 12:43:15 26° NNW 12:48:29 73° NE 12:56:07 10° SE
Cosmos 1697 Rocket 4.0 12:47:40 17° NNE 12:50:56 30° ENE 12:55:48 10° SE
Cosmos 2219 3.2 12:45:20 10° SSW 12:51:09 74° WNW 12:54:54 22° NNE
Cosmos 1607 4.1 12:45:29 10° SW 12:51:37 52° WNW 12:55:03 25° N
IRS-P3 4.1 12:48:40 25° NNE 12:51:57 87° WNW 12:57:24 10° SSW
CZ-2D R/B 2.6 12:50:35 31° NNW 12:52:43 46° W 12:57:52 10° SSW
Cosmos 1605 Rocket 4.1 12:47:11 10° SSW 12:53:33 68° W 12:57:06 27° N
Okean 3 Rocket 3.8 12:49:00 10° S 12:53:39 71° E 12:56:20 25° NNE
GP-B 4.0 12:49:26 10° SSE 12:53:49 45° E 12:56:39 20° NNE
Cosmos 1300 3.5 12:55:22 32° WNW 12:56:26 40° WSW 13:00:09 10° S
ARIANE 5 R/B 2.8 12:54:41 16° NNE 12:58:52 68° ESE 13:04:03 10° S
ERS-2 4.4 12:58:30 10° SE 13:01:14 19° E 13:03:39 11° NE
Cosmos 1892 2.6 12:59:04 10° S 13:02:59 87° W 13:04:36 34° N
Cosmos 773 Rocket 4.0 13:01:16 29° N 13:03:58 76° ENE 13:09:13 10° SSE
Cosmos 1153 Rocket 4.5 13:04:56 10° SSW 13:11:12 75° W 13:15:27 21° N
CZ-4C R/B 4.3 13:09:54 10° SSE 13:14:16 48° E 13:17:08 20° NNE
CZ-2D R/B 3.9 13:17:03 13° NNE 13:20:34 60° ESE 13:24:35 10° S
ADEOS II 2.1 13:17:13 20° N 13:20:54 72° WNW 13:26:16 10° SSW
CZ-3B R/B 1.5 13:19:07 10° SW 13:22:07 50° SSE 13:23:48 10° ENE
CZ-2C R/B 3.9 13:19:11 10° NE 13:23:00 44° ESE 13:26:47 10° S
IRS-1D 4.1 13:21:25 25° NNW 13:24:08 43° W 13:29:19 10° SSW
Cosmos 1766 Rocket 3.5 13:20:03 10° SSW 13:24:28 72° W 13:27:06 23° N
Cosmos 2082 3.8 13:18:51 10° SSW 13:24:42 84° ESE 13:30:26 10° NNE
ISS -3.8 13:25:17 30° WNW 13:26:51 90° SW 13:30:18 10° ESE
SL-8 R/B 3.8 13:23:20 12° W 13:27:50 82° SSW 13:32:42 10° ESE
Spot 4 Rocket 4.0 13:25:26 15° NNE 13:29:48 83° WNW 13:35:04 10° SSW
Cosmos 2369 3.9 13:30:02 21° N 13:33:57 68° ENE 13:39:39 10° SSE
Cosmos 1656 3.7 13:30:50 23° NNW 13:34:33 78° WSW 13:40:21 10° SSE
Cosmos 2016 Rocket 4.3 13:28:18 10° S 13:34:33 70° E 13:40:49 10° NNE
Cosmos 1455 2.3 13:34:12 27° NNW 13:36:16 68° W 13:40:13 10° S
ATLAS 5 CENTAUR R/B 3.8 13:34:42 10° W 13:36:31 12° WNW 13:36:31 12° WNW
deb Chang Zheng 4 3.6 13:34:25 18° N 13:37:36 67° WNW 13:42:03 10° SSW
Cosmos 2278 4.0 13:40:32 17° N 13:44:52 61° ENE 13:50:30 10° SSE
Cosmos 1340 Rocket 3.4 13:42:54 23° NW 13:44:58 44° WSW 13:48:50 10° S
Cosmos 1725 Rocket 4.3 13:40:22 10° S 13:46:41 69° E 13:52:56 10° NNE
Cosmos 1680 Rocket 4.3 13:42:28 13° N 13:46:58 47° ENE 13:52:03 10° SSE
DELTA 2 R/B (1) 4.0 13:44:32 14° WNW 13:48:55 40° N 13:54:08 10° ENE
Cosmos 2151 3.9 13:47:06 10° SSW 13:51:03 34° W 13:53:23 20° NW
Cosmos 2221 2.7 13:56:36 13° N 14:00:28 70° E 14:04:49 10° SSE
Cosmos 1437 4.1 13:58:51 10° SW 14:01:24 22° W 14:02:22 19° WNW
IDEFIX/ARIANE 42P 2.9 13:57:11 10° NNE 14:02:27 71° ESE 14:07:47 10° S
Meteor 1-27 4.5 13:58:17 10° N 14:03:53 70° E 14:09:31 10° SSE
Cosmos 1980 Rocket 2.5 13:59:49 13° N 14:04:48 62° ENE 14:10:22 10° SSE
Cosmos 1825 2.7 14:01:25 10° SSW 14:05:06 42° W 14:07:49 16° NNW
Meteor 2-3 Rocket 3.8 13:59:39 10° SSW 14:05:27 84° W 14:11:14 10° N
Cosmos 2360 4.3 14:02:27 14° NNW 14:07:23 77° ENE 14:13:09 10° SSE
Cosmos 2061 Rocket 4.1 14:01:01 10° SSW 14:07:23 67° W 14:13:37 10° N
H-2A R/B 4.0 14:05:11 10° SE 14:09:10 28° E 14:13:06 10° NNE
Cosmos 2263 Rocket 3.6 14:03:43 10° SSW 14:09:12 43° SE 14:14:37 10° NE
MOZ.5/SAFIR/RUBIN 5/SL-8 4.0 14:05:23 10° SSE 14:10:10 76° ENE 14:14:54 10° N
Cosmos 1408 3.8 14:07:13 10° SSW 14:10:27 26° W 14:12:34 16° NW
USA 215 4.4 14:07:04 10° ESE 14:12:52 32° NE 14:18:37 10° N
SL-08 R/B 4.5 14:06:50 10° SSW 14:13:09 74° W 14:19:17 10° N
SL-16 R/B 2.9 14:08:24 10° SSE 14:14:45 69° ENE 14:21:02 10° N
Cosmos 1842 Rocket 3.7 14:11:28 14° NNW 14:15:11 61° WSW 14:19:40 10° S
Cosmos 2297 Rocket 3.4 14:15:46 10° SW 14:20:03 22° W 14:23:51 12° NNW
Cosmos 923 Rocket 4.1 14:15:28 13° NNW 14:20:16 74° WSW 14:25:42 10° SSE
UNK 3.8 14:15:42 10° SSE 14:20:23 84° ENE 14:25:01 10° NNW
Lacrosse 4 Rocket 3.6 14:17:14 10° W 14:20:32 19° SW 14:23:50 10° S
Cosmos 2056 Rocket 4.0 14:17:14 10° SSW 14:22:39 68° ESE 14:27:55 10° NNE
Cosmos 2322 Rocket 4.1 14:18:25 10° NNE 14:22:56 24° ENE 14:27:27 10° SE
Cosmos 1805 Rocket 4.0 14:18:32 10° S 14:23:00 64° E 14:27:21 10° NNE
Cosmos 2227 Rocket 3.4 14:19:26 10° SW 14:23:47 23° W 14:27:56 11° NNW
Cosmos 1743 Rocket 3.9 14:22:51 10° SSW 14:27:08 48° W 14:31:20 10° NNW
SL-16 R/B 3.8 14:23:01 10° NNE 14:27:55 31° ENE 14:32:51 10° SE
Meteor 2-10 Rocket 4.4 14:26:35 12° NW 14:31:29 38° WSW 14:36:36 10° S
Cosmos 2233 Rocket 4.1 14:25:40 10° S 14:32:00 86° W 14:38:19 10° N
Cosmos 1697 Rocket 3.3 14:29:24 11° NW 14:34:40 48° WSW 14:40:13 10° SSE
ERS-2 3.1 14:31:28 10° S 14:34:55 35° WSW 14:38:16 10° NW
ARIANE 5 R/B 4.1 14:35:01 10° NW 14:38:27 18° W 14:41:57 10° SW
Cosmos 158 Rocket 4.2 14:34:41 10° NNW 14:39:50 77° ENE 14:45:12 10° SSE
MSX 3.9 14:36:02 10° N 14:41:51 78° WNW 14:47:43 10° SSW
Cosmos 1500 Rocket 4.3 14:39:17 10° SSW 14:43:28 37° W 14:47:37 10° NNW
CZ-2C R/B 2.9 14:38:54 10° NNE 14:43:38 65° ESE 14:48:35 10° S
ADEOS 3.7 14:42:05 10° N 14:47:16 59° W 14:52:31 10° SSW
H-2A R/B 2.6 14:44:02 10° NNE 14:47:55 73° ESE 14:51:50 10° S
USA 267 4.3 14:41:49 10° E 14:48:10 52° SSE 14:54:33 10° SW
H-2A R/B 4.0 14:49:33 10° NW 14:55:04 34° NNE 15:17:02 10° ENE
SL-08 R/B 3.8 14:50:27 10° SSE 14:55:09 62° ENE 14:59:49 10° N
COSMOS 2455 3.7 14:50:25 10° N 14:56:09 47° ENE 15:01:56 10° SE
Cosmos 44 3.7 14:51:07 10° SW 14:56:33 85° SE 15:01:54 10° NE
